Location: Karcze
(52.0945°N, 22.4786°E)
Time: 23:13:44
(UTC+00:00)

Transit 2A Rocket - Pass Details

Date: 02 August 2021
Orbit: 586 x 917 km, 66.7° (Epoch: 26 September)

Event Time Altitude Azimuth Distance (km) Brightness Sun altitude
Rises 11:28:03 0° 173° (S) 2,851 8.4 54.1°
Reaches altitude 10° 11:30:43 10° 156° (SSE) 1,989 7.7 53.9°
Maximum altitude 11:33:57 20° 109° (ESE) 1,498 6.8 53.7°
Drops below altitude 10° 11:37:22 10° 63° (ENE) 2,121 7.1 53.5°
Sets 11:40:19 0° 47° (NE) 3,107 7.8 53.3°
